Date String (YYYY-MM-DD hh:mm:ss) UTC,Instrument flags,absolute air pressure of the measurement (hPa),sample flow rate (lpm),inlet stack bypass flow (lpm),air temperature of the measurement (°C),ambient temperature measured by the external sensor (°C),aerosol sample conditioner tube jacket temperature (°C),OPC LED temperature (°C),internal box temperature (°C),relative humidity of the measurement (%),span deviation,mass concentration of particles derived from Lorenz-Mie calculation of OPC scattering (μg/m³),mass concentration of particles derived from Lorenz-Mie calculation of OPC scattering (μg/m³),mass concentration of particles derived from Lorenz-Mie calculation of OPC scattering (μg/m³)
DateTimeUTC,F1_M11,P_M11,Q1_M11,Q2_M11,T1_M11,T2_M11,T3_M11,T4_M11,T5_M11,U1_M11,ZSPAN_M11,X0_M11,X2_M11,X1_M11
2023-10-05 21:00:00,SystemResetWarning,0835.6,5.00,000.00,028.4,024.2,000.0,036.8,029.7,17.3,0000.0,0012.34,0003.71,0003.12
2023-10-05 21:01:00,SystemResetWarning,0835.6,5.00,000.00,028.3,024.6,000.0,036.8,029.7,17.4,0000.0,0011.99,0003.71,0003.12
2023-10-05 21:02:00,SystemResetWarning,0835.6,5.00,000.00,028.2,025.1,000.0,036.8,029.7,17.6,0000.0,0011.84,0003.71,0003.13
2023-10-05 21:03:00,SystemResetWarning,0835.6,5.00,000.00,028.2,025.5,000.0,036.8,029.8,17.5,0000.0,0011.88,0003.74,0003.14
2023-10-05 21:04:00,SystemResetWarning,0835.6,5.01,000.00,028.2,025.9,000.0,036.8,029.9,17.5,0000.0,0011.98,0003.77,0003.16
2023-10-05 21:05:00,SystemResetWarning,0835.6,4.99,000.00,028.3,026.2,000.0,036.8,029.9,17.4,0000.0,0012.42,0003.78,0003.16
2023-10-05 21:06:00,SystemResetWarning,0835.6,5.00,000.00,028.3,026.5,000.0,036.8,030.0,17.3,0000.0,0011.73,0003.76,0003.16
2023-10-05 21:07:00,SystemResetWarning,0835.6,5.00,000.00,028.3,026.8,000.0,036.8,030.1,17.3,0000.0,0010.72,0003.72,0003.16
2023-10-05 21:08:00,SystemResetWarning,0835.5,5.00,000.00,028.4,027.0,000.0,036.8,030.1,17.1,0000.0,0010.81,0003.72,0003.16
2023-10-05 21:09:00,SystemResetWarning,0835.6,5.01,000.00,028.4,027.1,000.0,036.8,030.2,17.1,0000.0,0011.44,0003.73,0003.17
2023-10-05 21:10:00,SystemResetWarning,0835.6,5.00,000.00,028.5,027.3,000.0,036.8,030.2,17.2,0000.0,0010.95,0003.73,0003.18
2023-10-05 21:11:00,SystemResetWarning,0835.6,5.00,000.00,028.5,027.4,000.0,036.8,030.3,17.1,0000.0,0009.56,0003.71,0003.18
2023-10-05 21:12:00,SystemResetWarning,0835.6,5.00,000.00,028.5,027.5,000.0,036.9,030.3,17.1,0000.0,0009.42,0003.70,0003.17
2023-10-05 21:13:00,SystemResetWarning,0835.5,5.00,000.00,028.6,027.6,000.0,036.9,030.4,17.0,0000.0,0010.01,0003.66,0003.16
2023-10-05 21:14:00,SystemResetWarning,0835.5,4.98,000.00,028.6,026.7,000.0,036.9,030.4,17.1,0000.0,0010.90,0003.64,0003.14
2023-10-05 21:15:00,SystemResetWarning,0835.5,5.00,000.00,028.6,025.2,000.0,036.8,030.2,17.2,0000.0,0011.18,0003.61,0003.11
2023-10-05 21:16:00,SystemResetWarning,0835.5,5.01,000.00,028.5,025.0,000.0,036.8,030.1,17.2,0000.0,0011.41,0003.58,0003.09
2023-10-05 21:17:00,SystemResetWarning,0835.5,5.01,000.00,028.4,025.2,000.0,036.8,029.9,17.2,0000.0,0011.24,0003.56,0003.09
2023-10-05 21:18:00,SystemResetWarning,0835.5,5.00,000.00,028.4,025.6,000.0,036.8,029.9,17.3,0000.0,0011.72,0003.58,0003.09
2023-10-05 21:19:00,SystemResetWarning,0835.5,5.00,000.00,028.4,025.9,000.0,036.8,030.0,17.3,0000.0,0011.68,0003.57,0003.07
2023-10-05 21:20:00,SystemResetWarning,0835.5,4.99,000.00,028.4,026.3,000.0,036.8,030.0,17.3,0000.0,0010.51,0003.54,0003.09
2023-10-05 21:21:00,SystemResetWarning,0835.5,4.99,000.00,028.4,026.6,000.0,036.9,030.1,17.5,0000.0,0010.42,0003.59,0003.14
2023-10-05 21:22:00,SystemResetWarning,0835.5,4.99,000.00,028.4,026.8,000.0,036.9,030.2,17.3,0000.0,0010.35,0003.60,0003.16
2023-10-05 21:23:00,SystemResetWarning,0835.5,5.00,000.00,028.5,027.0,000.0,036.9,030.2,17.1,0000.0,0009.95,0003.59,0003.18
2023-10-05 21:24:00,SystemResetWarning,0835.5,5.00,000.00,028.5,027.2,000.0,036.9,030.3,17.1,0000.0,0009.03,0003.63,0003.19
2023-10-05 21:25:00,SystemResetWarning,0835.5,5.00,000.00,028.6,027.4,000.0,036.9,030.3,17.4,0000.0,0007.87,0003.61,0003.20
2023-10-05 21:26:00,SystemResetWarning,0835.5,5.00,000.00,028.6,027.5,000.0,036.9,030.4,17.3,0000.0,0007.58,0003.61,0003.22
2023-10-05 21:27:00,SystemResetWarning,0835.5,4.99,000.00,028.6,027.2,000.0,036.9,030.4,17.0,0000.0,0007.59,0003.64,0003.23
2023-10-05 21:28:00,SystemResetWarning,0835.5,4.99,000.00,028.6,025.5,000.0,036.9,030.2,17.0,0000.0,0009.09,0003.68,0003.24
2023-10-05 21:29:00,SystemResetWarning,0835.5,5.02,000.00,028.5,025.0,000.0,036.8,030.1,17.2,0000.0,0009.11,0003.69,0003.24
2023-10-05 21:30:00,SystemResetWarning,0835.4,5.00,000.00,028.4,025.1,000.0,036.8,029.9,17.1,0000.0,0009.74,0003.72,0003.24
2023-10-05 21:31:00,SystemResetWarning,0835.4,4.99,000.00,028.4,025.4,000.0,036.8,029.9,17.1,0000.0,0009.91,0003.70,0003.21
2023-10-05 21:32:00,SystemResetWarning,0835.4,5.00,000.00,028.4,025.8,000.0,036.9,029.9,17.1,0000.0,0010.06,0003.64,0003.15
2023-10-05 21:33:00,SystemResetWarning,0835.5,5.00,000.00,028.4,026.2,000.0,036.9,030.0,17.0,0000.0,0010.73,0003.59,0003.12
2023-10-05 21:34:00,SystemResetWarning,0835.5,5.00,000.00,028.4,026.5,000.0,036.9,030.1,17.1,0000.0,0011.66,0003.59,0003.10
2023-10-05 21:35:00,SystemResetWarning,0835.5,4.99,000.00,028.4,026.7,000.0,036.9,030.1,17.2,0000.0,0012.18,0003.58,0003.08
2023-10-05 21:36:00,SystemResetWarning,0835.5,4.98,000.00,028.5,027.0,000.0,036.9,030.2,17.1,0000.0,0012.31,0003.56,0003.06
2023-10-05 21:37:00,SystemResetWarning,0835.5,5.00,000.00,028.5,027.2,000.0,036.9,030.3,17.1,0000.0,0012.53,0003.55,0003.03
2023-10-05 21:38:00,SystemResetWarning,0835.5,5.01,000.00,028.5,027.3,000.0,036.9,030.3,17.0,0000.0,0012.49,0003.56,0003.03
2023-10-05 21:39:00,SystemResetWarning,0835.5,5.00,000.00,028.6,027.5,000.0,036.9,030.4,17.0,0000.0,0011.92,0003.54,0003.01
2023-10-05 21:40:00,SystemResetWarning,0835.5,5.00,000.00,028.6,027.6,000.0,036.9,030.4,17.0,0000.0,0011.06,0003.54,0003.01
2023-10-05 21:41:00,SystemResetWarning,0835.5,4.99,000.00,028.7,027.0,000.0,036.9,030.4,16.8,0000.0,0010.40,0003.56,0003.02
2023-10-05 21:42:00,SystemResetWarning,0835.5,5.00,000.00,028.6,025.1,000.0,036.9,030.2,16.9,0000.0,0010.11,0003.54,0003.03
2023-10-05 21:43:00,SystemResetWarning,0835.3,5.00,000.00,028.5,024.0,000.0,036.8,029.9,17.0,0000.0,0009.84,0003.54,0003.07
2023-10-05 21:44:00,SystemResetWarning,0835.3,5.01,000.00,028.4,024.2,000.0,036.8,029.8,17.2,0000.0,0009.69,0003.55,0003.10
2023-10-05 21:45:00,SystemResetWarning,0835.3,5.01,000.00,028.3,024.6,000.0,036.8,029.7,17.5,0000.0,0009.33,0003.58,0003.11
2023-10-05 21:46:00,SystemResetWarning,0835.3,5.00,000.00,028.2,025.0,000.0,036.8,029.7,17.4,0000.0,0008.89,0003.57,0003.11
2023-10-05 21:47:00,SystemResetWarning,0835.3,5.00,000.00,028.2,025.5,000.0,036.8,029.8,17.3,0000.0,0008.64,0003.57,0003.11
2023-10-05 21:48:00,SystemResetWarning,0835.3,5.00,000.00,028.2,025.9,000.0,036.8,029.8,17.4,0000.0,0008.51,0003.59,0003.12
2023-10-05 21:49:00,SystemResetWarning,0835.4,5.01,000.00,028.3,026.2,000.0,036.8,029.9,17.3,0000.0,0008.51,0003.60,0003.12
2023-10-05 21:50:00,SystemResetWarning,0835.5,5.00,000.00,028.3,026.5,000.0,036.8,030.0,17.3,0000.0,0008.64,0003.59,0003.13
2023-10-05 21:51:00,SystemResetWarning,0835.5,5.00,000.00,028.3,026.8,000.0,036.8,030.1,17.2,0000.0,0009.32,0003.60,0003.14
2023-10-05 21:52:00,SystemResetWarning,0835.3,5.00,000.00,028.4,027.0,000.0,036.8,030.1,17.3,0000.0,0009.38,0003.59,0003.12
2023-10-05 21:53:00,SystemResetWarning,0835.3,4.99,000.00,028.4,027.2,000.0,036.8,030.2,17.2,0000.0,0009.43,0003.59,0003.13
2023-10-05 21:54:00,SystemResetWarning,0835.4,4.99,000.00,028.5,027.3,000.0,036.8,030.3,17.1,0000.0,0010.30,0003.64,0003.13
2023-10-05 21:55:00,SystemResetWarning,0835.5,4.99,000.00,028.5,027.5,000.0,036.9,030.3,17.0,0000.0,0011.18,0003.64,0003.12
2023-10-05 21:56:00,SystemResetWarning,0835.5,5.00,000.00,028.6,027.6,000.0,036.9,030.4,17.0,0000.0,0010.22,0003.61,0003.10
2023-10-05 21:57:00,SystemResetWarning,0835.5,5.00,000.00,028.6,027.7,000.0,036.9,030.4,16.9,0000.0,0010.06,0003.60,0003.07
2023-10-05 21:58:00,SystemResetWarning,0835.5,5.00,000.00,028.7,027.3,000.0,036.9,030.5,17.0,0000.0,0010.70,0003.58,0003.01
2023-10-05 21:59:00,SystemResetWarning,0835.4,5.00,000.00,028.6,025.3,000.0,036.9,030.2,17.0,0000.0,0011.32,0003.58,0002.98
